Presure
181 186 184 186 170 185 183 190 206 204 192 189 194 193 191 194 193 199 203 135 196 293 290 205 218 201 197 223 235 236 249 295 519 521 530 535 549 562
174 188 183 183 182 185 181 194 204 200 193 185 187 193 193 201 205 226 283 230 277 215 227 214 213 228 244 260 356 460 467 490 487 482 489 502 513 516
182 181 182 189 182 185 184 195 187 195 190 191 191 202 175 218 276 168 240 215 215 219 224 242 255 276 478 456 465 457 434 415 402 399 395 394 401 421
183 181 190 183 186 180 191 184 192 186 194 196 202 166 175 160 293 212 221 219 226 238 255 295 467 441 430 451 422 399 377 367 364 366 364 357 370 374
180 191 184 186 185 179 186 190 192 194 202 148 160 136 173 268 208 218 223 238 250 320 474 438 417 415 413 394 371 356 354 351 339 337 341 354 368 372
190 184 182 191 181 188 191 194 198 181 214 187 143 283 253 217 217 233 242 254 500 447 418 402 417 405 377 361 344 337 335 333 328 325 326 333 356 364
182 187 190 182 190 191 195 201 182 136 218 285 281 220 217 219 239 246 402 493 419 409 406 431 407 371 361 341 327 322 320 318 312 326 325 415 423 421
190 185 179 190 192 195 135 204 217 253 280 269 214 218 225 245 250 510 485 414 383 383 372 387 375 359 345 329 323 320 311 319 320 318 321 413 459 465
181 183 190 193 199 202 213 231 239 270 258 224 219 236 247 324 499 449 401 380 364 359 394 354 348 336 331 327 321 316 314 316 317 312 422 407 392 390
184 183 179 202 204 215 233 278 261 214 215 229 240 250 457 455 409 393 373 352 338 334 325 311 327 340 330 326 315 312 307 311 316 309 398 387 377 359
190 199 203 204 230 248 219 255 218 205 231 243 258 427 402 386 381 369 358 342 316 310 320 304 306 304 296 310 316 305 288 308 309 319 379 366 352 350
200 190 214 233 278 256 207 223 222 237 243 404 400 374 363 352 339 334 323 318 309 297 306 292 305 309 295 287 284 270 271 287 305 320 386 361 361 360
204 219 246 262 249 210 217 227 239 248 411 384 362 349 336 325 320 318 314 311 288 276 274 285 300 308 295 291 289 265 268 278 303 327 381 362 355 354
256 267 229 216 216 223 233 240 356 396 371 354 340 329 325 337 348 345 312 297 285 259 245 321 324 360 326 319 297 277 273 284 307 331 370 345 350 384
253 205 215 213 226 230 241 406 384 364 347 332 323 350 347 341 338 333 262 333 362 399 391 397 330 315 367 331 327 312 280 304 316 336 357 338 365 317
202 216 200 227 236 315 396 375 357 341 330 352 348 341 337 404 261 244 388 387 371 371 387 392 383 344 331 362 319 314 296 296 316 367 325 362 369 380
212 223 232 242 413 382 366 349 337 328 353 340 335 325 312 252 255 341 398 402 385 359 357 378 388 348 344 354 315 303 296 309 360 312 365 372 363 367
230 236 415 400 373 357 340 330 337 347 337 337 334 263 249 386 378 376 376 396 394 394 353 364 363 372 357 345 308 296 308 354 310 363 380 356 366 372
502 437 391 364 347 331 321 321 336 339 338 279 374 303 381 379 372 367 361 360 391 390 354 359 363 361 338 300 293 309 356 292 319 381 354 365 363 375
430 388 361 342 325 316 318 334 331 327 259 286 396 389 381 377 372 363 361 353 383 365 349 359 354 320 298 296 312 356 355 317 374 349 359 346 374 381
384 356 335 319 312 306 327 325 293 250 409 402 399 400 399 397 385 384 365 350 380 346 364 346 306 297 296 318 349 301 286 361 360 329 344 342 354 356
355 335 315 308 305 326 321 319 248 392 397 408 416 409 407 401 403 417 409 359 345 377 339 302 295 297 318 349 287 344 350 360 357 325 366 347 360 351
336 312 304 306 325 317 310 239 359 383 393 399 418 422 425 421 426 440 439 399 401 329 299 292 297 343 331 284 305 364 354 356 353 337 350 358 333 332
Wind_Speed
72 74 74 75 74 78 78 81 80 79 85 91 93 94 95 99 104 108 108 75 94 113 112 100 104 102 106 118 124 124 130 124 61 65 67 68 65 66
72 75 76 77 79 81 81 85 87 86 85 92 95 99 101 106 109 117 119 103 110 104 108 108 110 117 128 133 105 60 59 53 51 52 53 56 59 64
74 75 77 80 81 84 85 89 88 91 90 98 101 106 94 114 121 90 103 101 106 111 115 124 129 137 55 56 52 42 44 47 51 53 55 56 56 55
75 76 81 81 85 84 90 90 94 95 98 100 108 94 97 88 113 99 106 110 117 125 133 135 55 54 53 38 38 41 44 51 52 53 55 59 58 57
74 80 81 84 87 86 92 95 98 102 107 76 92 86 94 113 101 109 116 125 133 121 54 60 56 52 36 36 38 44 45 47 51 54 55 55 57 59
79 80 82 88 88 94 96 100 103 96 115 99 85 114 110 106 111 121 127 136 50 57 62 61 47 35 37 38 42 45 46 45 50 54 58 61 61 62
78 83 87 88 94 97 101 105 100 79 112 118 114 100 107 112 124 129 91 45 55 61 54 43 29 34 34 37 41 45 45 48 53 51 54 52 50 50
84 86 86 94 97 100 73 110 117 123 117 118 101 106 116 127 132 50 43 48 53 60 45 30 30 34 34 38 40 41 45 46 48 49 51 42 31 30
83 88 94 97 101 105 112 119 111 117 119 109 107 122 129 113 44 37 42 44 46 45 30 32 37 39 38 34 38 40 43 45 47 48 38 35 33 32
87 90 89 103 107 112 117 112 117 104 109 119 126 132 58 39 36 36 38 38 45 44 34 39 40 37 39 37 39 39 42 45 46 46 41 37 35 35
93 100 104 106 115 118 99 114 106 102 122 127 135 47 46 45 41 36 37 38 45 52 44 41 44 40 44 36 39 38 39 43 43 44 42 38 37 34
99 98 109 114 106 110 98 109 113 124 127 65 57 56 52 49 46 42 40 41 46 54 50 50 49 41 48 34 37 39 40 40 41 44 40 36 35 35
103 109 109 106 110 102 106 115 124 131 55 56 58 58 58 57 54 51 49 46 48 52 51 52 54 48 42 50 38 36 41 41 41 45 41 38 35 35
104 101 100 104 105 110 119 126 83 55 57 59 60 62 61 58 53 51 55 52 50 49 53 49 48 45 49 49 45 35 38 40 38 44 41 38 39 41
100 95 102 102 115 120 125 55 55 58 61 63 64 61 59 57 55 53 50 49 48 43 40 39 44 46 37 41 43 38 39 42 39 45 39 38 38 32
95 103 95 116 121 97 54 56 59 61 63 61 60 58 58 51 56 53 44 43 43 42 37 31 27 35 33 29 34 33 33 34 41 38 35 35 32 33
103 111 117 122 47 52 56 59 61 62 59 57 56 55 57 57 53 43 33 30 32 34 35 30 19 27 25 23 25 27 30 34 34 29 30 28 31 32
112 116 50 43 49 53 58 62 61 61 59 60 59 61 57 39 37 35 30 27 25 26 25 22 17 15 16 14 19 21 25 29 23 25 20 24 28 30
31 32 38 44 49 54 60 62 63 62 63 60 47 53 41 38 33 31 27 24 24 18 17 15 9 8 8 13 17 23 25 16 18 17 19 22 21 23
27 33 38 43 49 55 59 61 62 62 57 54 42 41 38 35 32 28 23 18 19 13 9 5 4 4 8 11 16 17 12 15 14 16 19 15 18 20
28 33 38 44 50 55 56 59 59 55 46 41 40 39 37 32 31 26 19 9 13 4 3 6 4 4 7 13 13 9 11 13 14 15 13 14 17 20
29 32 39 45 49 50 54 57 53 55 52 48 41 37 33 29 24 22 17 3 4 4 12 8 2 3 12 10 6 6 10 13 15 15 11 10 17 27
28 34 40 44 44 49 53 49 59 58 55 52 46 39 32 27 25 21 15 4 4 18 11 6 4 10 10 5 9 10 11 15 15 16 12 15 23 29
Wind_Direction
279 282 285 287 288 291 292 294 294 292 293 294 294 295 295 293 292 293 293 292 292 292 291 289 290 285 286 286 287 285 284 282 272 270 270 270 270 269
279 282 286 288 290 292 293 295 294 294 294 295 295 294 293 294 294 294 296 294 293 294 295 287 286 290 289 288 286 282 278 276 277 277 276 274 271 268
280 284 286 288 290 292 294 294 295 295 296 295 294 295 292 295 298 291 294 297 294 293 292 295 294 293 291 288 283 276 276 277 276 277 277 275 272 268
281 285 286 289 291 294 294 295 296 297 297 296 297 294 295 292 297 300 301 298 297 297 299 298 296 294 292 281 276 278 275 278 278 277 279 277 276 270
284 284 288 290 293 294 295 296 297 298 297 290 295 292 293 298 302 304 301 300 301 300 293 295 298 296 283 280 280 279 279 278 281 281 282 282 280 275
284 288 291 291 294 295 295 297 298 296 298 297 289 299 300 306 305 302 302 303 296 293 294 297 296 284 279 282 281 280 280 280 281 281 282 282 280 276
288 290 290 293 294 296 298 299 297 291 299 301 299 305 307 305 304 305 302 294 293 293 298 293 286 282 282 280 280 282 281 280 281 281 281 290 284 278
288 291 293 293 297 299 291 299 300 301 301 299 308 309 306 306 307 296 291 292 293 296 300 279 282 283 283 282 281 282 282 284 286 289 291 295 298 296
291 293 294 296 299 299 300 301 300 301 301 310 310 308 308 306 299 294 292 294 294 296 292 290 291 289 288 287 286 287 290 293 295 295 307 300 289 288
294 294 296 299 298 300 302 303 301 309 311 310 309 308 309 308 309 303 293 291 292 292 292 291 296 294 291 291 291 292 295 296 297 297 310 305 295 281
295 297 298 299 302 303 300 300 309 308 310 309 308 316 314 312 309 305 293 287 290 295 299 293 296 296 293 297 291 296 298 296 299 305 309 299 294 285
298 299 300 301 302 301 307 309 311 309 310 310 312 311 311 310 309 304 296 291 291 295 299 301 297 294 293 293 294 295 298 304 302 308 304 296 289 290
298 299 301 302 300 308 310 311 310 309 309 310 309 309 308 307 306 302 298 293 296 299 301 299 291 291 289 289 290 290 296 303 303 309 311 307 299 297
300 301 302 304 307 310 311 310 310 311 310 309 310 308 306 306 305 302 296 297 297 298 298 285 282 277 280 281 284 287 290 296 302 311 310 309 307 309
301 303 305 310 310 310 309 313 312 310 310 310 309 310 309 306 304 300 306 298 297 296 292 291 278 280 278 276 278 285 293 299 308 314 308 306 306 303
305 307 310 309 308 309 312 312 310 310 311 314 313 312 311 308 308 307 298 296 297 299 298 295 286 274 277 273 279 285 289 300 308 307 304 304 313 321
307 307 306 306 315 313 313 311 312 313 317 316 316 312 312 310 311 310 306 299 295 295 298 301 293 274 275 271 276 284 297 304 305 303 306 317 323 326
305 306 311 315 312 314 313 312 315 320 320 320 319 310 312 314 312 312 310 308 304 299 293 293 289 273 267 264 276 286 294 308 306 309 330 330 332 338
315 317 315 313 314 314 313 316 321 324 323 314 316 314 314 312 310 309 309 312 314 306 288 291 272 254 251 278 297 306 313 306 319 343 346 341 346 351
318 318 315 315 313 314 317 322 325 325 315 317 322 317 313 309 305 302 305 308 316 302 289 265 212 218 275 293 307 313 310 332 2 7 359 359 10 23
319 317 316 315 316 318 322 325 324 318 344 336 328 322 317 311 301 296 290 303 310 266 189 150 165 268 300 321 324 330 329 10 26 27 13 26 42 54
317 318 316 316 319 324 326 329 323 352 351 350 343 336 328 323 318 304 290 275 172 152 133 137 149 339 337 355 360 5 19 35 39 45 52 72 68 83
318 317 318 321 328 329 331 325 351 357 356 355 352 347 341 334 327 313 304 187 142 125 128 117 66 67 44 36 38 38 51 58 61 68 64 87 95 82